SITRO-AIS 30

Last updated on Thu Nov 21 2024 00:03:40 GMT+0000 (Coordinated Universal Time)

1 59053U 24039C 24325.59128041 .00067282 00000+0 14956-2 0 9997 2 59053 97.4080 287.8719 0015341 35.8871 324.3404 15.43311929 40563
UTC large
Height (km)
Speed (km/s)
/
Latitude / Longitude
Inclination (degrees)
Orbital Period (minutes)
Azimuth
Elevation
Range (km)
Doppler Factor

Next 0 passes for location: London (51.5072 / 0.1276)

Sorry there are no passes over London.